Date String (YYYY-MM-DD hh:mm:ss) UTC,Instrument flags,Ambient pressure (hPa),Sample flow (lpm),Bypass flow (lpm),Sample temperature (°C),Ambient temperature (°C),ASC tube jacket temperature (°C),LED temperature (°C),Box temperature (°C),Sample RH (%),Span deviation,Mass concentration (μg/m³),Mass concentration (μg/m³),Mass concentration (μg/m³)
DateTimeUTC,F1_M11,P_M11,Q1_M11,Q2_M11,T1_M11,T2_M11,T3_M11,T4_M11,T5_M11,U1_M11,ZSPAN_M11,X0_M11,X2_M11,X1_M11
2023-04-29 18:00:00,,0832.8,5.00,0.00,27.5,26.4,00.0,35.7,29.1,11.3,0000.0,0013.06,0004.91,0002.36
2023-04-29 18:01:00,,0832.9,4.99,0.00,27.5,26.4,00.0,35.7,29.1,11.3,0000.0,0013.47,0004.93,0002.35
2023-04-29 18:02:00,,0833.0,5.01,0.00,27.5,26.4,00.0,35.7,29.1,11.2,0000.0,0013.55,0004.88,0002.34
2023-04-29 18:03:00,,0832.8,5.00,0.00,27.6,26.4,00.0,35.7,29.1,11.2,0000.0,0013.91,0004.91,0002.35
2023-04-29 18:04:00,,0832.8,5.00,0.00,27.6,26.4,00.0,35.8,29.1,11.5,0000.0,0013.87,0004.82,0002.33
2023-04-29 18:05:00,,0832.8,5.00,0.00,27.6,26.4,00.0,35.8,29.1,11.1,0000.0,0013.80,0004.78,0002.32
2023-04-29 18:06:00,,0832.8,4.99,0.00,27.6,26.4,00.0,35.8,29.2,11.0,0000.0,0013.68,0004.75,0002.32
2023-04-29 18:07:00,,0832.8,5.00,0.00,27.6,26.5,00.0,35.8,29.2,11.1,0000.0,0013.70,0004.69,0002.34
2023-04-29 18:08:00,,0832.8,5.01,0.00,27.6,26.5,00.0,35.8,29.2,11.4,0000.0,0013.71,0004.72,0002.37
2023-04-29 18:09:00,,0832.8,5.00,0.00,27.6,26.5,00.0,35.9,29.2,11.2,0000.0,0013.16,0004.70,0002.37
2023-04-29 18:10:00,,0832.8,5.00,0.00,27.6,26.5,00.0,35.9,29.2,11.3,0000.0,0012.97,0004.67,0002.37
2023-04-29 18:11:00,,0832.8,5.00,0.00,27.7,26.5,00.0,35.9,29.2,11.8,0000.0,0012.28,0004.67,0002.39
2023-04-29 18:12:00,,0832.8,5.01,0.00,27.7,26.5,00.0,35.9,29.2,12.1,0000.0,0011.79,0004.62,0002.39
2023-04-29 18:13:00,,0832.7,5.01,0.00,27.7,26.5,00.0,35.9,29.3,12.1,0000.0,0011.81,0004.70,0002.46
2023-04-29 18:14:00,,0832.8,4.99,0.00,27.7,26.5,00.0,35.9,29.3,11.9,0000.0,0011.53,0004.71,0002.54
2023-04-29 18:15:00,,0832.7,4.99,0.00,27.7,26.5,00.0,36.0,29.3,12.0,0000.0,0011.62,0004.85,0002.65
2023-04-29 18:16:00,,0832.7,5.01,0.00,27.7,26.5,00.0,36.0,29.3,12.0,0000.0,0011.73,0004.90,0002.75
2023-04-29 18:17:00,,0832.9,5.00,0.00,27.7,26.5,00.0,36.0,29.3,11.9,0000.0,0011.79,0004.97,0002.83
2023-04-29 18:18:00,,0832.7,5.00,0.00,27.8,26.6,00.0,36.0,29.3,12.0,0000.0,0011.77,0005.06,0002.91
2023-04-29 18:19:00,,0832.7,4.99,0.00,27.8,26.6,00.0,36.0,29.3,12.2,0000.0,0011.84,0005.11,0002.99
2023-04-29 18:20:00,,0832.6,5.01,0.00,27.8,26.6,00.0,36.0,29.3,12.2,0000.0,0012.00,0005.14,0003.05
2023-04-29 18:21:00,,0832.7,5.01,0.00,27.8,26.6,00.0,36.0,29.3,11.9,0000.0,0012.04,0005.17,0003.11
2023-04-29 18:22:00,,0832.7,4.99,0.00,27.8,26.6,00.0,36.1,29.3,11.6,0000.0,0012.09,0005.23,0003.15
2023-04-29 18:23:00,,0832.7,5.00,0.00,27.8,26.6,00.0,36.1,29.4,11.8,0000.0,0012.31,0005.32,0003.18
2023-04-29 18:24:00,,0832.7,5.01,0.00,27.8,26.6,00.0,36.1,29.4,11.7,0000.0,0012.04,0005.26,0003.19
2023-04-29 18:25:00,,0832.7,5.01,0.00,27.8,26.6,00.0,36.1,29.4,11.6,0000.0,0011.89,0005.21,0003.18
2023-04-29 18:26:00,,0832.7,5.00,0.00,27.8,26.6,00.0,36.1,29.4,11.6,0000.0,0011.49,0005.08,0003.15
2023-04-29 18:27:00,,0832.6,5.00,0.00,27.8,26.5,00.0,36.1,29.4,11.5,0000.0,0011.37,0005.05,0003.13
2023-04-29 18:28:00,,0832.7,5.00,0.00,27.8,26.5,00.0,36.1,29.4,11.4,0000.0,0011.31,0005.02,0003.12
2023-04-29 18:29:00,,0832.6,5.01,0.00,27.8,26.5,00.0,36.1,29.3,11.5,0000.0,0011.31,0004.98,0003.11
2023-04-29 18:30:00,,0832.6,5.01,0.00,27.8,26.6,00.0,36.1,29.3,11.7,0000.0,0011.40,0005.00,0003.10
2023-04-29 18:31:00,,0832.6,4.99,0.00,27.8,26.6,00.0,36.1,29.3,12.3,0000.0,0011.14,0004.93,0003.10
2023-04-29 18:32:00,,0832.5,5.00,0.00,27.8,26.6,00.0,36.1,29.4,12.1,0000.0,0011.14,0004.91,0003.09
2023-04-29 18:33:00,,0832.6,5.01,0.00,27.9,26.7,00.0,36.2,29.4,11.9,0000.0,0011.13,0004.85,0003.05
2023-04-29 18:34:00,,0832.6,5.00,0.00,27.9,26.7,00.0,36.2,29.4,12.0,0000.0,0010.96,0004.81,0003.03
2023-04-29 18:35:00,,0832.6,5.00,0.00,27.9,26.7,00.0,36.2,29.4,11.8,0000.0,0011.09,0004.84,0003.02
2023-04-29 18:36:00,,0832.6,5.01,0.00,27.9,26.7,00.0,36.2,29.4,11.9,0000.0,0011.29,0004.89,0002.98
2023-04-29 18:37:00,,0832.6,5.00,0.00,27.9,26.7,00.0,36.2,29.4,12.0,0000.0,0011.47,0004.91,0002.95
2023-04-29 18:38:00,,0832.6,5.00,0.00,27.9,26.7,00.0,36.2,29.4,11.9,0000.0,0011.63,0004.85,0002.90
2023-04-29 18:39:00,,0832.5,4.99,0.00,27.9,26.8,00.0,36.2,29.4,11.6,0000.0,0012.14,0004.83,0002.85
2023-04-29 18:40:00,,0832.6,4.99,0.00,27.9,26.8,00.0,36.2,29.5,11.6,0000.0,0011.95,0004.78,0002.82
2023-04-29 18:41:00,,0832.6,5.00,0.00,27.9,26.8,00.0,36.2,29.5,11.7,0000.0,0011.83,0004.74,0002.77
2023-04-29 18:42:00,,0832.5,5.01,0.00,28.0,26.8,00.0,36.2,29.5,12.1,0000.0,0012.55,0004.76,0002.74
2023-04-29 18:43:00,,0832.6,5.00,0.00,28.0,26.9,00.0,36.3,29.5,11.8,0000.0,0012.46,0004.73,0002.73
2023-04-29 18:44:00,,0832.5,4.99,0.00,28.0,26.9,00.0,36.3,29.5,12.2,0000.0,0013.38,0004.78,0002.72
2023-04-29 18:45:00,,0832.5,5.01,0.00,28.0,26.9,00.0,36.3,29.6,12.1,0000.0,0013.68,0004.84,0002.68
2023-04-29 18:46:00,,0832.5,5.00,0.00,28.0,26.9,00.0,36.3,29.6,12.0,0000.0,0013.64,0004.82,0002.65
2023-04-29 18:47:00,,0832.6,4.99,0.00,28.0,26.9,00.0,36.3,29.6,11.9,0000.0,0013.98,0004.78,0002.63
2023-04-29 18:48:00,,0832.5,4.99,0.00,28.0,26.9,00.0,36.3,29.6,11.6,0000.0,0013.96,0004.75,0002.63
2023-04-29 18:49:00,,0832.5,5.00,0.00,28.0,26.9,00.0,36.3,29.6,11.7,0000.0,0013.92,0004.78,0002.64
2023-04-29 18:50:00,,0832.5,5.01,0.00,28.1,26.9,00.0,36.4,29.6,11.6,0000.0,0013.42,0004.76,0002.65
2023-04-29 18:51:00,,0832.4,4.99,0.00,28.1,26.9,00.0,36.4,29.6,11.9,0000.0,0013.95,0004.81,0002.66
2023-04-29 18:52:00,,0832.4,5.01,0.00,28.1,26.9,00.0,36.4,29.6,11.7,0000.0,0014.32,0004.80,0002.67
2023-04-29 18:53:00,,0832.5,5.01,0.00,28.1,27.0,00.0,36.4,29.6,11.5,0000.0,0013.90,0004.82,0002.67
2023-04-29 18:54:00,,0832.4,5.00,0.00,28.1,27.0,00.0,36.4,29.7,11.4,0000.0,0014.04,0004.85,0002.65
2023-04-29 18:55:00,,0832.4,5.00,0.00,28.1,27.0,00.0,36.4,29.7,11.4,0000.0,0013.51,0004.83,0002.65
2023-04-29 18:56:00,,0832.5,5.01,0.00,28.2,27.1,00.0,36.4,29.7,11.8,0000.0,0013.16,0004.77,0002.64
2023-04-29 18:57:00,,0832.5,4.99,0.00,28.2,27.1,00.0,36.4,29.7,12.1,0000.0,0013.36,0004.75,0002.62
2023-04-29 18:58:00,,0832.5,4.99,0.00,28.2,27.1,00.0,36.5,29.8,11.8,0000.0,0013.01,0004.78,0002.62
2023-04-29 18:59:00,,0832.5,5.00,0.00,28.2,27.2,00.0,36.5,29.8,11.7,0000.0,0012.85,0004.81,0002.64
